This demonstration page uses our WeatherBlox Daily Observations layout. Learn more.

Left ArrowRight Arrow

39.51506, -84.39828

Hourly Observations for March 20, 2021

Temp ( °F °C ) Dew Point ( °F °C ) Humidity (%) Winds ( mph kmh ) Pressure ( in mb ) Visibility ( mi km ) Precip ( " mm )
12:15 am 00:15 Clear 33 0.7 24 -4.5 69 69 NNE 8 13 30.53 1034 10 16 N/A
12:35 am 00:35 Clear 33 0.4 24 -4.7 69 69 N 6 9 30.53 1034 10 16 N/A
12:55 am 00:55 Clear 32 -0.2 24 -4.7 72 72 NNE 8 13 30.54 1034 10 16 N/A
1:15 am 01:15 Clear 31 -0.6 23 -4.8 74 74 N 7 11 30.54 1034 10 16 N/A
1:35 am 01:35 Clear 31 -0.8 23 -4.8 75 75 N 7 11 30.54 1034 10 16 N/A
1:55 am 01:55 Clear 30 -1.2 23 -4.8 77 77 N 6 9 30.55 1035 10 16 N/A
2:15 am 02:15 Clear 30 -1.2 23 -5 76 76 N 5 7 30.55 1035 10 16 N/A
3:55 am 03:55 Clear 30 -1.2 21 -6 70 70 NNE 9 15 30.55 1035 10 16 N/A
4:15 am 04:15 Clear 30 -1.2 21 -6.3 69 69 NNE 8 13 30.56 1035 10 16 N/A
4:35 am 04:35 Clear 30 -1.3 20 -6.6 68 68 NNE 6 9 30.56 1035 10 16 N/A
4:55 am 04:55 Clear 29 -1.6 20 -6.8 68 68 NNE 6 9 30.56 1035 10 16 N/A
5:15 am 05:15 Clear 29 -1.8 20 -6.8 69 69 N 6 9 30.56 1035 10 16 N/A
5:35 am 05:35 Clear 28 -2 19 -7 69 69 NNE 6 9 30.57 1035 10 16 N/A
5:55 am 05:55 Clear 29 -1.9 19 -7 68 68 NNE 6 9 30.57 1035 10 16 N/A
6:15 am 06:15 Clear 28 -2 19 -7.1 68 68 NNE 6 9 30.57 1035 10 16 N/A
6:35 am 06:35 Clear 28 -2.1 19 -7.1 69 69 NNE 5 7 30.58 1036 10 16 N/A
6:55 am 06:55 Clear 27 -2.7 19 -7.2 71 71 N 3 6 30.58 1036 10 16 N/A
7:15 am 07:15 Clear 26 -3.4 19 -7.1 76 76 N N/A 30.59 1036 10 16 N/A
7:35 am 07:35 Clear 28 -2.1 20 -6.5 72 72 NNW 3 6 30.59 1036 10 16 N/A
7:55 am 07:55 Sunny 28 -2.5 21 -6.2 76 76 N 3 6 30.60 1036 10 16 N/A
8:15 am 08:15 Sunny 28 -2.4 20 -6.5 74 74 N 5 7 30.60 1036 10 16 N/A
8:35 am 08:35 Sunny 29 -1.6 22 -5.7 74 74 N 5 7 30.61 1037 10 16 N/A
8:55 am 08:55 Sunny 31 -0.5 22 -5.8 68 68 N 3 6 30.61 1036 10 16 N/A
9:15 am 09:15 Sunny 33 0.6 21 -6.1 61 61 NE 6 9 30.60 1036 10 16 N/A
9:35 am 09:35 Sunny 35 1.4 22 -5.7 60 60 NE 7 11 30.60 1036 10 16 N/A
9:55 am 09:55 Sunny 36 2.4 22 -5.6 56 56 NE 7 11 30.60 1036 10 16 N/A
10:15 am 10:15 Sunny 39 3.7 23 -5.1 53 53 NE 6 9 30.60 1036 10 16 N/A
10:35 am 10:35 Sunny 41 5.2 22 -5.6 46 46 NE 6 9 30.59 1036 10 16 N/A
10:55 am 10:55 Sunny 44 6.7 21 -6.2 40 40 ENE 7 11 30.59 1036 10 16 N/A
11:15 am 11:15 Sunny 46 7.6 19 -7 35 35 E 6 9 30.59 1036 10 16 N/A
11:35 am 11:35 Sunny 48 8.7 21 -6 35 35 ESE 8 13 30.58 1036 10 16 N/A
11:55 am 11:55 Sunny 49 9.2 22 -5.5 35 35 E 8 13 30.57 1035 10 16 N/A
12:15 pm 12:15 Sunny 49 9.6 23 -5 36 36 E 8 13 30.56 1035 10 16 N/A
12:35 pm 12:35 Sunny 51 10.5 23 -5.2 33 33 ESE 7 11 30.56 1035 10 16 N/A
12:55 pm 12:55 Sunny 52 11 24 -4.7 33 33 ENE 7 11 30.55 1034 10 16 N/A
1:15 pm 13:15 Sunny 52 11.3 23 -5.2 31 31 NE 7 11 30.55 1034 10 16 N/A
1:35 pm 13:35 Sunny 53 11.9 21 -6 28 28 ENE 6 9 30.53 1034 10 16 N/A
1:55 pm 13:55 Sunny 54 12.4 22 -5.6 28 28 SE 6 9 30.53 1034 10 16 N/A
2:15 pm 14:15 Sunny 56 13.2 22 -5.4 27 27 E 12 19 30.52 1034 10 16 N/A
2:35 pm 14:35 Sunny 56 13.5 21 -6.1 25 25 E 7 11 30.51 1033 10 16 N/A
2:55 pm 14:55 Sunny 58 14.2 22 -5.4 25 25 ENE 8 13 30.50 1033 10 16 N/A
3:15 pm 15:15 Sunny 58 14.3 22 -5.5 25 25 E 7 11 30.49 1032 10 16 N/A
3:35 pm 15:35 Sunny 58 14.5 22 -5.4 25 25 ESE 7 11 30.48 1032 10 16 N/A
3:55 pm 15:55 Sunny 57 14.1 23 -5.2 26 26 E 7 11 30.48 1032 10 16 N/A
4:15 pm 16:15 Sunny 58 14.6 23 -5 26 26 E 9 15 30.47 1032 10 16 N/A
4:35 pm 16:35 Sunny 58 14.6 22 -5.7 24 24 E 5 7 30.46 1031 10 16 N/A
4:55 pm 16:55 Sunny 59 14.9 23 -4.9 25 25 ESE 8 13 30.45 1031 10 16 N/A
5:15 pm 17:15 Sunny 59 15.1 22 -5.4 24 24 ENE 12 19 30.45 1031 10 16 N/A
5:35 pm 17:35 Sunny 59 14.9 22 -5.5 24 24 E 9 15 30.45 1031 10 16 N/A
5:55 pm 17:55 Sunny 59 15 22 -5.3 24 24 ESE 10 17 30.44 1031 10 16 N/A
6:15 pm 18:15 Sunny 59 14.8 22 -5.5 24 24 E 9 15 30.44 1031 10 16 N/A
6:35 pm 18:35 Sunny 58 14.7 24 -4.2 27 27 ENE 9 15 30.44 1031 10 16 N/A
6:55 pm 18:55 Sunny 58 14.3 25 -4 28 28 E 6 9 30.44 1031 10 16 N/A
7:15 pm 19:15 Sunny 56 13.6 26 -3.6 30 30 ENE 9 15 30.44 1031 10 16 N/A
7:35 pm 19:35 Sunny 54 12.3 26 -3.6 33 33 E 8 13 30.44 1031 10 16 N/A
7:55 pm 19:55 Clear 52 11.2 25 -3.8 35 35 E 6 9 30.45 1031 10 16 N/A
8:15 pm 20:15 Clear 51 10.7 25 -3.8 36 36 E 5 7 30.45 1031 10 16 N/A
8:35 pm 20:35 Clear 45 7.4 31 -0.4 58 58 N N/A 30.46 1031 10 16 N/A
8:55 pm 20:55 Clear 43 5.9 33 0.3 68 68 N 3 6 30.46 1031 10 16 N/A
9:15 pm 21:15 Clear 41 4.9 31 -0.3 69 69 N 5 7 30.46 1032 10 16 N/A
9:35 pm 21:35 Clear 41 4.9 32 -0.2 70 70 N N/A 30.46 1032 10 16 N/A
9:55 pm 21:55 Clear 39 4.1 30 -1.2 69 69 N N/A 30.47 1032 10 16 N/A
10:15 pm 22:15 Clear 38 3.4 31 -0.7 75 75 N 3 6 30.48 1032 10 16 N/A
10:35 pm 22:35 Clear 38 3.4 32 -0.1 78 78 NNE 3 6 30.48 1032 10 16 N/A
10:55 pm 22:55 Clear 36 2.4 31 -0.5 81 81 N 5 7 30.48 1032 10 16 N/A
11:15 pm 23:15 Clear 37 2.6 32 0.2 84 84 NNE 3 6 30.47 1032 10 16 N/A
11:35 pm 23:35 Clear 35 1.9 31 -0.4 85 85 NNE 3 6 30.47 1032 10 16 N/A
11:55 pm 23:55 Clear 35 1.6 31 -0.5 86 86 N 3 6 30.47 1032 10 16 N/A

Powered by AerisWeather